| time (UTC) | temp C | wind direction | speed KPH | gust KPH | rain 1hr cm | rain 24hr cm | rain mn cm | humidity % | barometer mb |
| 20260505065430 | 18 | 173 | 4.8 | 6.4 | 0.00 | 0.00 | 0.00 | 69 | 1009.1 |
| 20260505063930 | 18 | 0 | 0.0 | 6.4 | 0.00 | 0.00 | 0.00 | 67 | 1009.3 |
| 20260505062430 | 18 | 142 | 6.4 | 6.4 | 0.00 | 0.00 | 0.00 | 67 | 1009.5 |
| 20260505060930 | 18 | 118 | 1.6 | 6.4 | 0.00 | 0.00 | 0.00 | 67 | 1009.6 |
| 20260505055431 | 17 | 112 | 3.2 | 6.4 | 0.00 | 0.00 | 0.00 | 68 | 1009.9 |
| 20260505053930 | 17 | 0 | 0.0 | 1.6 | 0.00 | 0.00 | 0.00 | 70 | 1009.7 |
| 20260505052430 | 17 | 122 | 1.6 | 1.6 | 0.00 | 0.00 | 0.00 | 70 | 1010.1 |
| 20260505050930 | 17 | 0 | 0.0 | 1.6 | 0.00 | 0.00 | 0.00 | 70 | 1010.0 |
| 20260505040930 | 17 | 94 | 1.6 | 1.6 | 0.00 | 0.00 | 0.00 | 69 | 1010.3 |
| 20260505035430 | 18 | 0 | 0.0 | 0.0 | 0.00 | 0.00 | 0.00 | 69 | 1010.3 |
| 20260505033930 | 18 | 110 | 1.6 | 1.6 | 0.00 | 0.00 | 0.00 | 66 | 1010.5 |
| 20260505032430 | 19 | 137 | 1.6 | 3.2 | 0.00 | 0.00 | 0.00 | 64 | 1010.6 |
| 20260505030930 | 19 | 107 | 1.6 | 1.6 | 0.00 | 0.00 | 0.00 | 63 | 1010.5 |
| 20260505025430 | 20 | 150 | 1.6 | 3.2 | 0.00 | 0.00 | 0.00 | 63 | 1010.3 |
| 20260505023930 | 20 | 167 | 1.6 | 4.8 | 0.00 | 0.00 | 0.00 | 62 | 1009.9 |
| 20260505022430 | 20 | 126 | 1.6 | 3.2 | 0.00 | 0.00 | 0.00 | 62 | 1009.8 |
| 20260505020930 | 20 | 99 | 1.6 | 1.6 | 0.00 | 0.00 | 0.00 | 60 | 1009.5 |
| 20260505015431 | 21 | 0 | 0.0 | 0.0 | 0.00 | 0.00 | 0.00 | 58 | 1009.7 |
| 20260505013930 | 21 | 0 | 0.0 | 0.0 | 0.00 | 0.00 | 0.00 | 57 | 1009.4 |
| 20260505012430 | 21 | 110 | 1.6 | 1.6 | 0.00 | 0.00 | 0.00 | 56 | 1009.1 |
| 20260505010930 | 22 | 146 | 3.2 | 3.2 | 0.00 | 0.00 | 0.00 | 54 | 1009.1 |
| 20260505005430 | 22 | 141 | 1.6 | 1.6 | 0.00 | 0.00 | 0.00 | 52 | 1009.0 |
| 20260505003930 | 23 | 161 | 1.6 | 3.2 | 0.00 | 0.00 | 0.00 | 51 | 1009.2 |
| 20260505002431 | 23 | 104 | 1.6 | 3.2 | 0.00 | 0.00 | 0.00 | 50 | 1009.1 |
| 20260504235431 | 23 | 156 | 3.2 | 6.4 | 0.00 | 0.00 | 0.00 | 48 | 1009.1 |
| 20260504233930 | 24 | 187 | 3.2 | 4.8 | 0.00 | 0.00 | 0.00 | 47 | 1009.3 |
| 20260504232430 | 24 | 130 | 1.6 | 1.6 | 0.00 | 0.00 | 0.00 | 47 | 1009.2 |
| 20260504230930 | 25 | 198 | 4.8 | 6.4 | 0.00 | 0.00 | 0.00 | 45 | 1009.3 |
| 20260504225431 | 25 | 169 | 4.8 | 8.0 | 0.00 | 0.00 | 0.00 | 45 | 1009.7 |
| 20260504223931 | 25 | 173 | 9.7 | 11.3 | 0.00 | 0.00 | 0.00 | 43 | 1009.9 |
| 20260504222430 | 25 | 236 | 6.4 | 8.0 | 0.00 | 0.00 | 0.00 | 44 | 1010.1 |
| 20260504220930 | 25 | 170 | 6.4 | 6.4 | 0.00 | 0.00 | 0.00 | 44 | 1010.0 |
| 20260504215431 | 25 | 186 | 6.4 | 8.0 | 0.00 | 0.00 | 0.00 | 42 | 1010.1 |
| 20260504213930 | 26 | 224 | 4.8 | 11.3 | 0.00 | 0.00 | 0.00 | 41 | 1010.6 |
| 20260504212430 | 26 | 167 | 8.0 | 9.7 | 0.00 | 0.00 | 0.00 | 41 | 1010.4 |
| 20260504210931 | 26 | 300 | 1.6 | 14.5 | 0.00 | 0.00 | 0.00 | 41 | 1010.7 |
| 20260504205431 | 26 | 219 | 8.0 | 8.0 | 0.00 | 0.00 | 0.00 | 41 | 1010.7 |
| 20260504203930 | 26 | 154 | 9.7 | 14.5 | 0.00 | 0.00 | 0.00 | 41 | 1011.2 |
| 20260504202430 | 26 | 237 | 3.2 | 3.2 | 0.00 | 0.00 | 0.00 | 42 | 1011.2 |
| 20260504200930 | 26 | 180 | 3.2 | 12.9 | 0.00 | 0.00 | 0.00 | 41 | 1011.7 |
| 20260504195430 | 26 | 124 | 3.2 | 4.8 | 0.00 | 0.00 | 0.00 | 41 | 1012.0 |
| 20260504193931 | 26 | 191 | 9.7 | 11.3 | 0.00 | 0.00 | 0.00 | 41 | 1012.3 |
| 20260504192431 | 26 | 263 | 3.2 | 8.0 | 0.00 | 0.00 | 0.00 | 40 | 1012.5 |
| 20260504190931 | 25 | 201 | 8.0 | 8.0 | 0.00 | 0.00 | 0.00 | 42 | 1012.7 |
| 20260504183930 | 25 | 211 | 9.7 | 11.3 | 0.00 | 0.00 | 0.00 | 42 | 1013.0 |
| 20260504182430 | 25 | 164 | 4.8 | 11.3 | 0.00 | 0.00 | 0.00 | 40 | 1013.2 |
| 20260504180930 | 25 | 229 | 6.4 | 6.4 | 0.00 | 0.00 | 0.00 | 43 | 1013.3 |
| 20260504175430 | 25 | 146 | 9.7 | 11.3 | 0.00 | 0.00 | 0.00 | 43 | 1013.6 |
| 20260504173930 | 24 | 106 | 4.8 | 9.7 | 0.00 | 0.00 | 0.00 | 41 | 1013.9 |
| 20260504150930 | 20 | 120 | 6.4 | 11.3 | 0.00 | 0.00 | 0.00 | 59 | 1015.0 |
| 20260504080931 | 13 | 37 | 8.0 | 11.3 | 0.00 | 0.00 | 0.00 | 88 | 1015.4 |